• In Deutschland
  • Länderverzeichnis
  • Für 7 Tage
  • Wassertemperatur
  • Satellitenkarten
  • Wetterkarte
  • Widgets
  • user-avatar
    Anmelden

    Stündliche Wetter Jechegnadsor

    Heute, 25 April, Mittwoch

    Zeit Temperatur Niederschläge Wind Luftdruck Luftfeuchtigkeit
    00:00 +10°C° 0 mm 1 m/S 654 mmHg 57%
    01:00 +10°C° 0 mm 1 m/S 654 mmHg 56%
    02:00 +10°C° 0 mm 1 m/S 654 mmHg 55%
    03:00 +8°C° 0 mm 2 m/S 654 mmHg 52%
    04:00 +8°C° 0 mm 2 m/S 654 mmHg 53%
    05:00 +8°C° 0 mm 2 m/S 654 mmHg 54%
    06:00 +8°C° 0 mm 2 m/S 654 mmHg 55%
    07:00 +10°C° 0 mm 2 m/S 655 mmHg 56%
    08:00 +13°C° 0 mm 1 m/S 655 mmHg 58%
    09:00 +15°C° 0 mm 2 m/S 656 mmHg 58%
    10:00 +16°C° 0 mm 2 m/S 655 mmHg 56%
    11:00 +16°C° 0 mm 2 m/S 655 mmHg 54%
    12:00 +17°C° 0 mm 2 m/S 655 mmHg 51%
    13:00 +18°C° 0 mm 2 m/S 655 mmHg 49%
    14:00 +18°C° 0 mm 2 m/S 655 mmHg 47%
    15:00 +20°C° 0 mm 1 m/S 654 mmHg 44%
    16:00 +19°C° 0 mm 1 m/S 654 mmHg 45%
    17:00 +18°C° 0 mm 1 m/S 654 mmHg 46%
    18:00 +18°C° 0 mm 1 m/S 653 mmHg 46%
    19:00 +15°C° 0 mm 1 m/S 653 mmHg 48%
    20:00 +14°C° 0 mm 1 m/S 653 mmHg 49%
    21:00 +13°C° 0 mm 1 m/S 653 mmHg 50%
    22:00 +12°C° 0 mm 2 m/S 653 mmHg 50%
    23:00 +12°C° 0 mm 2 m/S 653 mmHg 50%

    Morgen, 26 April, Donnerstag

    Zeit Temperatur Niederschläge Wind Luftdruck Luftfeuchtigkeit
    00:00 +12°C° 0 mm 2 m/S 653 mmHg 49%
    01:00 +10°C° 0 mm 2 m/S 653 mmHg 49%
    02:00 +10°C° 0 mm 2 m/S 653 mmHg 49%
    03:00 +10°C° 0 mm 2 m/S 653 mmHg 49%
    04:00 +10°C° 0 mm 2 m/S 653 mmHg 49%
    05:00 +11°C° 0 mm 1 m/S 654 mmHg 49%
    06:00 +11°C° 0 mm 1 m/S 654 mmHg 49%
    07:00 +13°C° 0 mm 1 m/S 654 mmHg 47%
    08:00 +15°C° 0 mm 1 m/S 655 mmHg 44%
    09:00 +18°C° 0 mm 1 m/S 655 mmHg 41%
    10:00 +19°C° 0 mm 1 m/S 655 mmHg 39%
    11:00 +20°C° 0 mm 1 m/S 655 mmHg 36%
    12:00 +21°C° 0 mm 1 m/S 655 mmHg 34%
    13:00 +21°C° 0 mm 1 m/S 655 mmHg 33%
    14:00 +21°C° 0 mm 2 m/S 655 mmHg 33%
    15:00 +21°C° 0 mm 2 m/S 654 mmHg 33%
    16:00 +21°C° 0,1 mm 1 m/S 654 mmHg 37%
    17:00 +20°C° 0,1 mm 1 m/S 654 mmHg 42%
    18:00 +20°C° 0,1 mm 1 m/S 654 mmHg 46%
    19:00 +18°C° 0 mm 1 m/S 654 mmHg 50%
    20:00 +16°C° 0 mm 2 m/S 654 mmHg 54%
    21:00 +15°C° 0 mm 2 m/S 654 mmHg 59%
    22:00 +14°C° 0 mm 2 m/S 654 mmHg 61%
    23:00 +14°C° 0 mm 2 m/S 654 mmHg 63%

    übermorgen, 27 April, Freitag

    Zeit Temperatur Niederschläge Wind Luftdruck Luftfeuchtigkeit
    00:00 +13°C° 0 mm 2 m/S 654 mmHg 66%
    01:00 +13°C° 0 mm 2 m/S 654 mmHg 66%
    02:00 +12°C° 0 mm 2 m/S 654 mmHg 67%
    03:00 +12°C° 0 mm 2 m/S 653 mmHg 67%
    04:00 +12°C° 0 mm 2 m/S 653 mmHg 66%
    05:00 +12°C° 0 mm 2 m/S 654 mmHg 65%
    06:00 +13°C° 0 mm 2 m/S 654 mmHg 63%
    07:00 +15°C° 0 mm 2 m/S 654 mmHg 57%
    08:00 +18°C° 0 mm 1 m/S 654 mmHg 50%
    09:00 +19°C° 0 mm 1 m/S 655 mmHg 44%
    10:00 +20°C° 0 mm 1 m/S 655 mmHg 43%
    11:00 +20°C° 0 mm 2 m/S 654 mmHg 41%
    12:00 +21°C° 0 mm 2 m/S 654 mmHg 40%
    13:00 +21°C° 0,4 mm 2 m/S 654 mmHg 43%
    14:00 +20°C° 0,4 mm 2 m/S 654 mmHg 46%
    15:00 +20°C° 0,4 mm 2 m/S 653 mmHg 49%
    16:00 +19°C° 0,7 mm 2 m/S 653 mmHg 56%
    17:00 +17°C° 0,7 mm 2 m/S 653 mmHg 62%
    18:00 +16°C° 0,7 mm 2 m/S 653 mmHg 69%
    19:00 +16°C° 0,4 mm 2 m/S 653 mmHg 72%
    20:00 +15°C° 0,4 mm 1 m/S 653 mmHg 75%
    21:00 +15°C° 0,4 mm 1 m/S 653 mmHg 77%
    22:00 +14°C° 0,3 mm 1 m/S 653 mmHg 78%
    23:00 +14°C° 0,3 mm 1 m/S 652 mmHg 79%

    28 April, Samstag

    Zeit Temperatur Niederschläge Wind Luftdruck Luftfeuchtigkeit
    00:00 +13°C° 0,3 mm 1 m/S 652 mmHg 80%
    01:00 +13°C° 0,2 mm 1 m/S 652 mmHg 81%
    02:00 +13°C° 0,2 mm 1 m/S 651 mmHg 81%
    03:00 +12°C° 0,2 mm 1 m/S 651 mmHg 82%
    04:00 +12°C° 0 mm 1 m/S 651 mmHg 81%
    05:00 +13°C° 0 mm 1 m/S 651 mmHg 80%
    06:00 +13°C° 0 mm 1 m/S 651 mmHg 79%
    07:00 +14°C° 0,1 mm 1 m/S 651 mmHg 73%
    08:00 +15°C° 0,1 mm 1 m/S 652 mmHg 68%
    09:00 +18°C° 0,1 mm 1 m/S 652 mmHg 62%
    10:00 +17°C° 0,2 mm 2 m/S 652 mmHg 60%
    11:00 +18°C° 0,2 mm 2 m/S 652 mmHg 58%
    12:00 +19°C° 0,2 mm 2 m/S 652 mmHg 56%
    13:00 +18°C° 1,4 mm 2 m/S 652 mmHg 59%
    14:00 +19°C° 1,4 mm 1 m/S 652 mmHg 61%
    15:00 +19°C° 1,4 mm 1 m/S 651 mmHg 64%
    16:00 +17°C° 1,9 mm 2 m/S 652 mmHg 68%
    17:00 +16°C° 1,9 mm 2 m/S 652 mmHg 72%
    18:00 +16°C° 1,9 mm 3 m/S 652 mmHg 76%
    19:00 +14°C° 1,3 mm 3 m/S 652 mmHg 77%
    20:00 +15°C° 1,3 mm 2 m/S 653 mmHg 78%
    21:00 +15°C° 1,3 mm 2 m/S 654 mmHg 79%
    22:00 +14°C° 0,4 mm 2 m/S 654 mmHg 80%
    23:00 +14°C° 0,4 mm 2 m/S 654 mmHg 80%

    29 April, Sonntag

    Zeit Temperatur Niederschläge Wind Luftdruck Luftfeuchtigkeit
    00:00 +14°C° 0,4 mm 2 m/S 654 mmHg 81%
    01:00 +14°C° 0,1 mm 2 m/S 654 mmHg 81%
    02:00 +13°C° 0,1 mm 2 m/S 654 mmHg 81%
    03:00 +13°C° 0,1 mm 2 m/S 654 mmHg 81%
    04:00 +13°C° 0 mm 2 m/S 654 mmHg 80%
    05:00 +13°C° 0 mm 2 m/S 654 mmHg 79%
    06:00 +13°C° 0 mm 2 m/S 655 mmHg 78%
    07:00 +14°C° 0 mm 2 m/S 655 mmHg 73%
    08:00 +15°C° 0 mm 2 m/S 656 mmHg 67%
    09:00 +18°C° 0 mm 1 m/S 656 mmHg 61%
    10:00 +18°C° 0,2 mm 1 m/S 656 mmHg 59%
    11:00 +18°C° 0,2 mm 2 m/S 656 mmHg 57%
    12:00 +19°C° 0,2 mm 2 m/S 656 mmHg 54%
    13:00 +19°C° 0,5 mm 2 m/S 655 mmHg 53%
    14:00 +19°C° 0,5 mm 2 m/S 655 mmHg 53%
    15:00 +21°C° 0,5 mm 1 m/S 655 mmHg 52%
    16:00 +20°C° 0,5 mm 1 m/S 655 mmHg 55%
    17:00 +20°C° 0,5 mm 1 m/S 654 mmHg 58%
    18:00 +19°C° 0,5 mm 1 m/S 654 mmHg 61%
    19:00 +18°C° 0,3 mm 1 m/S 655 mmHg 65%
    20:00 +16°C° 0,3 mm 1 m/S 655 mmHg 70%
    21:00 +15°C° 0,3 mm 1 m/S 655 mmHg 74%
    22:00 +14°C° 0,2 mm 1 m/S 655 mmHg 75%
    23:00 +14°C° 0,2 mm 1 m/S 655 mmHg 76%

    30 April, Montag

    Zeit Temperatur Niederschläge Wind Luftdruck Luftfeuchtigkeit
    00:00 +13°C° 0,2 mm 1 m/S 655 mmHg 77%
    01:00 +13°C° 0 mm 1 m/S 655 mmHg 76%
    02:00 +12°C° 0 mm 1 m/S 655 mmHg 76%
    03:00 +12°C° 0 mm 1 m/S 654 mmHg 75%
    04:00 +12°C° 0 mm 1 m/S 655 mmHg 73%
    05:00 +13°C° 0 mm 1 m/S 655 mmHg 71%
    06:00 +13°C° 0 mm 1 m/S 655 mmHg 70%
    07:00 +14°C° 0 mm 1 m/S 655 mmHg 63%
    08:00 +16°C° 0 mm 1 m/S 656 mmHg 56%
    09:00 +19°C° 0 mm 1 m/S 656 mmHg 49%
    10:00 +18°C° 0 mm 2 m/S 656 mmHg 46%
    11:00 +19°C° 0 mm 2 m/S 656 mmHg 43%
    12:00 +20°C° 0 mm 2 m/S 656 mmHg 41%
    13:00 +21°C° 0 mm 2 m/S 655 mmHg 40%
    14:00 +21°C° 0 mm 2 m/S 655 mmHg 39%
    15:00 +21°C° 0 mm 2 m/S 654 mmHg 39%
    16:00 +21°C° 0 mm 2 m/S 654 mmHg 42%
    17:00 +21°C° 0 mm 1 m/S 654 mmHg 44%
    18:00 +20°C° 0 mm 1 m/S 654 mmHg 47%
    19:00 +19°C° 0 mm 1 m/S 654 mmHg 52%
    20:00 +16°C° 0 mm 1 m/S 654 mmHg 58%
    21:00 +15°C° 0 mm 1 m/S 654 mmHg 63%
    22:00 +15°C° 0 mm 1 m/S 654 mmHg 63%
    23:00 +14°C° 0 mm 1 m/S 654 mmHg 64%
    Mehr zeigen